SV1BYK-4 Weather Reports


Display with metric or nautical units.
time (UTC)temp
F
wind
direction
speed
MPH
gust
MPH
rain 1hr
in
rain 24hr
in
rain mn
in
humidity
%
barometer
mb
20260503223337 52 309 1.0 4.0 0.00 0.05 0.00 56 1021.9
20260503221537 53 306 3.0 11.0 0.00 0.05 0.00 54 1022.0
20260503220637 53 302 5.0 13.0 0.00 0.05 0.00 54 1022.0
20260503214837 53 300 8.0 16.0 0.00 0.05 0.00 54 1022.1
20260503213937 53 304 3.0 9.0 0.00 0.05 0.00 55 1022.1
20260503212137 53 303 4.0 11.0 0.00 0.05 0.00 56 1022.0
20260503211237 53 305 2.0 11.0 0.00 0.05 0.00 56 1022.0
20260503210337 53 307 5.0 8.0 0.00 0.05 0.00 55 1022.0
20260503204537 53 305 4.0 9.0 0.00 0.05 0.05 56 1022.0
20260503203637 53 308 6.0 11.0 0.00 0.05 0.05 56 1022.0
20260503202737 53 299 8.0 11.0 0.00 0.05 0.05 56 1022.0
20260503201837 53 300 4.0 15.0 0.00 0.05 0.05 56 1022.2
20260503200937 53 312 7.0 14.0 0.00 0.05 0.05 56 1022.1
20260503200037 53 300 7.0 11.0 0.00 0.05 0.05 56 1022.1
20260503195137 54 306 5.0 11.0 0.00 0.05 0.05 56 1022.1
20260503194237 54 295 4.0 9.0 0.00 0.05 0.05 55 1022.2
20260503191537 54 304 5.0 11.0 0.00 0.05 0.05 54 1022.1
20260503190637 54 297 4.0 11.0 0.00 0.05 0.05 53 1022.0
20260503185737 55 310 7.0 14.0 0.00 0.05 0.05 52 1021.9
20260503184837 55 309 8.0 16.0 0.00 0.05 0.05 51 1021.8
20260503183937 55 311 11.0 21.0 0.00 0.05 0.05 51 1021.7
20260503183037 55 306 4.0 16.0 0.00 0.05 0.05 51 1021.4
20260503182137 55 308 8.0 15.0 0.00 0.05 0.05 52 1021.2
20260503181237 55 299 10.0 16.0 0.00 0.05 0.05 52 1021.0
20260503175437 55 305 8.0 18.0 0.00 0.05 0.05 53 1021.0
20260503174537 55 299 10.0 17.0 0.00 0.05 0.05 53 1020.8
20260503172737 55 313 6.0 15.0 0.00 0.05 0.05 51 1020.7
20260503171837 55 319 11.0 18.0 0.00 0.05 0.05 51 1020.7
20260503170937 56 309 7.0 15.0 0.00 0.05 0.05 50 1020.6
20260503150337 60 309 5.0 18.0 0.00 0.05 0.05 45 1019.3
20260503090337 54 316 12.0 24.0 0.00 0.05 0.05 55 1019.4
20260503072437 54 284 2.0 6.0 0.00 0.05 0.05 61 1018.6
20260503071537 52 303 2.0 9.0 0.00 0.05 0.05 64 1018.7
20260503070637 50 313 2.0 17.0 0.00 0.05 0.05 67 1018.7
20260503060337 47 298 4.0 8.0 0.01 0.05 0.05 77 1018.6
20260503054537 48 274 0.0 9.0 0.00 0.04 0.04 75 1019.1
20260503053637 48 254 2.0 6.0 0.00 0.04 0.04 75 1019.1
20260503052737 48 236 0.0 4.0 0.00 0.04 0.04 75 1018.9
20260503050937 48 253 2.0 4.0 0.00 0.04 0.04 74 1018.6
20260503050037 48 298 2.0 4.0 0.00 0.04 0.04 74 1018.5
20260503045137 49 296 1.0 4.0 0.00 0.04 0.04 72 1018.4
20260503043337 49 320 3.0 15.0 0.00 0.04 0.04 65 1017.9
20260503042437 49 336 2.0 17.0 0.00 0.04 0.04 65 1018.2
20260503041537 49 358 7.0 14.0 0.00 0.04 0.04 65 1017.9
20260503035737 49 312 3.0 18.0 0.00 0.04 0.04 66 1017.5
20260503034837 49 317 6.0 13.0 0.00 0.04 0.04 68 1017.6
20260503033937 49 328 4.0 13.0 0.00 0.04 0.04 68 1017.6
20260503033037 49 321 2.0 16.0 0.00 0.04 0.04 68 1017.5
20260503032137 49 329 4.0 16.0 0.00 0.04 0.04 68 1017.4
20260503030337 50 318 6.0 14.0 0.00 0.04 0.04 67 1017.2
20260503025437 50 313 9.0 14.0 0.00 0.04 0.04 67 1017.2
20260503024537 50 337 8.0 11.0 0.00 0.04 0.04 68 1017.3
20260503022737 50 311 2.0 9.0 0.00 0.04 0.04 68 1017.3
20260503020937 50 310 8.0 11.0 0.00 0.04 0.04 65 1017.5
20260503020037 50 319 6.0 20.0 0.00 0.04 0.04 64 1017.5
20260503015137 50 310 8.0 16.0 0.00 0.04 0.04 64 1017.5
20260503014237 51 310 5.0 18.0 0.00 0.04 0.04 64 1017.4
20260503012437 50 304 9.0 16.0 0.00 0.04 0.04 64 1017.2
20260503011537 51 314 4.0 16.0 0.00 0.04 0.04 64 1017.3
20260503010637 51 307 8.0 18.0 0.00 0.04 0.04 63 1017.3
20260503005737 51 304 4.0 20.0 0.00 0.04 0.04 62 1017.1
20260503004837 51 303 3.0 17.0 0.00 0.04 0.04 63 1016.9
20260503003937 49 320 2.0 13.0 0.00 0.04 0.04 67 1016.8
20260503003037 50 331 4.0 25.0 0.00 0.04 0.04 67 1016.9
20260503002137 50 336 4.0 16.0 0.00 0.04 0.04 68 1017.1
20260503000337 48 315 4.0 11.0 0.00 0.04 0.04 74 1017.3
20260502234537 47 311 6.0 20.0 0.00 0.04 0.04 76 1017.6
20260502233637 48 314 14.0 30.0 0.04 0.04 0.04 75 1017.5
20260502230937 49 319 8.0 23.0 0.04 0.04 0.04 71 1017.6
20260502230037 49 315 9.0 17.0 0.04 0.04 0.04 72 1017.8
20260502225137 49 309 3.0 16.0 0.04 0.04 0.04 73 1017.8